Weather in Belém

Brazil     1°27′06″S   48°28′53″W
temp.,
°C
wind,
m/s
gust,
m/s
humid.,
%
clouds,
%
prec.,
mm/h
press.,
hPa
HPBL,
m
18 april, sun
sun1800:00+23ene2796100 0.6 1012240
03:00+23e1397100 0.9 1010117
06:00+22e1699100 3.3 1011211
09:00+25ne1294100 4.5 1013140
12:00+26n1291100 2.4 1012470
15:00+25n1395100 5.7 1010273
18:00+24n269694 3.1 1011196
21:00+23n1296100 4.1 101258
19 april, mon
mon1900:00+23e119794 0.0 101240
03:00+23e1197100 0.0 101138
06:00+22ese129861 0.0 101153
09:00+27ese128018 0.0 1014492
12:00+29nne117338 1.9 10131051
15:00+27ese118824 5.0 1010551
18:00+24ese119685 5.7 101131
21:00+23e1295100 9.7 101341
20 april, tue
tue2000:00+23ene1197100 0.4 101347
03:00+22ene129845 0.4 101176
06:00+22ese129896 0.0 101261
09:00+26sse118380 0.0 1014442
12:00+27n118476 1.8 1013683
15:00+28nnw1276100 4.1 1010686
18:00+25n238435 0.3 101089
21:00+23nne149050 0.6 101398
21 april, wed
wed2100:00+23nne129796 1.6 101352
03:00+22ne1197100 2.7 101137
06:00+22e119875 1.7 101234
09:00+27nne138140 1.9 1014489
12:00+30n236573 0.8 10121255
15:00+29nnw246486 1.9 10091081
18:00+25nne258750 1.4 1010160
21:00+24ne1395100 3.8 101380
22 april, thu
thu2200:00+23ese1498100 3.3 1013106
03:00+22se1298100 3.5 101160
06:00+22se119898 0.1 101231
09:00+26e1181100 0.1 1014394
12:00+28n2277100 0.8 1012824
15:00+27n228377 4.1 1009650
18:00+24ne2598100 2.1 1010205
21:00+23ene129799 3.9 101270